Regional Weather Roundup
Issued by NWS

Home | Current Version | Previous Version | Graphics & Text | Print | Product List | Glossary On
Versions: 1 2 3 4 5 6 7 8 9 10 11 12 13 14 15 16 17 18 19 20 21 22 23 24 25 26 27 28 29 30 31 32 33 34 35 36 37 38 39 40 41 42 43 44 45 46 47 48 49 50
000
ASUS43 KLOT 312201
RWRIL

ILLINOIS REGIONAL WEATHER ROUNDUP
NATIONAL WEATHER SERVICE CHICAGO/ROMEOVILLE IL
500 PM CDT FRI JUL 31 2015

NOTE: "FAIR" INDICATES FEW OR NO CLOUDS BELOW 12,000 FEET WITH NO
SIGNIFICANT WEATHER AND/OR OBSTRUCTIONS TO VISIBILITY.

* THESE STATIONS ARE NOT UNDER NWS QUALITY CONTROL. THEY ALSO MAY NOT
  REPORT WEATHER SUCH AS PRECIPITATION OR FOG.

ILZ001-002-007-009-015-016-024-312300-
NORTHWEST ILLINOIS

CITY           SKY/WX    TMP DP  RH WIND       PRES   REMARKS
MOLINE         SUNNY     87  53  31 NW16G25   30.01S HX  85
STERLING*      SUNNY     84  57  39 NW15      29.96S HX  83
$$

ILZ003-004-008-010-011-017-018-312300-
NORTH CENTRAL ILLINOIS

CITY           SKY/WX    TMP DP  RH WIND       PRES   REMARKS
ROCKFORD       SUNNY     85  49  28 NW18G30   29.98F HX  83
$$

ILZ005-006-012>014-019>023-312300-
NORTHEAST ILLINOIS

CITY           SKY/WX    TMP DP  RH WIND       PRES   REMARKS
CHICAGO-OHARE  SUNNY     86  48  26 NW21G31   29.93S HX  83
CHICAGO-MIDWAY MOSUNNY   88  49  25 NW17G30   29.93F HX  85
AURORA         SUNNY     83  56  39 NW12G23   29.96F HX  82
WAUKEGAN       SUNNY     81  48  31 NW13G22   29.93S HX  80
DUPAGE AIRPORT SUNNY     84  49  29 NW15G25   29.95S HX  82
WHEELING       SUNNY     84  46  26 NW15G32   29.95S HX  82
NORTHERLY ISL    N/A     84  47  27 NW14        N/A  HX  82
$$

LMZ740>746-312300-
SOUTHERN LAKE MICHIGAN

STATION/POSITION SKY/WX   TEMP    WIND        PRES    VSBY  WAVE
                          AIR SEA DIR/SP/G                  HT/PER
                          (F)     (DEG/KT/KT) (MB)    (MI)  (FT/S)
HARRISON CRIB              81     310/ 21/ 26   N/A
BURNHAM HARBOR             85     280/ 15/ 20   N/A
CALUMET HARBOR             86     280/ 11/ 19   N/A
BURNS HARBOR               79     350/  5/  9 1013.9F
MICHIGAN CITY              80     290/  9/ 10   N/A
MICHIGAN CITY 6N           78 75  330/  8/ 10   N/A           1/ 3
ST. JOSEPH                 76 74  340/ 12/ 14   N/A           2/ 4
$$

ILZ025>027-034>036-040-047-049-050-058-095>099-312300-
WEST-CENTRAL ILLINOIS

CITY           SKY/WX    TMP DP  RH WIND       PRES   REMARKS
QUINCY         SUNNY     87  64  46 NW8       30.04F HX  88
$$

ILZ028>032-037-038-041>044-048-051>054-059>061-312300-
CENTRAL ILLINOIS

CITY           SKY/WX    TMP DP  RH WIND       PRES   REMARKS
DECATUR        SUNNY     89  59  36 NW9       30.01F HX  88
PEORIA         SUNNY     88  57  34 NW8       30.01F HX  87
SPRINGFIELD    MOSUNNY   89  68  49 NW7       30.02F HX  93
TAYLORVILLE    NOT AVBL
$$

ILZ033-039-045-046-055>057-062-063-312300-
EAST-CENTRAL ILLINOIS

CITY           SKY/WX    TMP DP  RH WIND       PRES   REMARKS
CHAMPAIGN      SUNNY     86  58  38 NW9       30.01F HX  85
MATTOON        SUNNY     89  62  40 NW13      30.01F HX  89
$$

ILZ079-100>102-312300-
SOUTHWEST ILLINOIS

CITY           SKY/WX    TMP DP  RH WIND       PRES   REMARKS
BELLEVILLE     SUNNY     91  62  37 VRB3      30.03S HX  91
CAHOKIA*       SUNNY     94  58  29 W7        30.03S HX  93
$$

ILZ064>066-069>071-074>076-080>082-084>086-088>090-092>094-312300-
SOUTH-CENTRAL ILLINOIS

CITY           SKY/WX    TMP DP  RH WIND       PRES   REMARKS
CARBONDALE     MOSUNNY   89  67  47 NW5       30.04F HX  92
MARION         MOSUNNY   90  66  45 NW8       30.05F HX  92
MT. VERNON     SUNNY     90  64  43 W3        30.04F HX  91
$$

ILZ067-068-072-073-078-083-087-091-312300-
SOUTHEAST ILLINOIS

CITY           SKY/WX    TMP DP  RH WIND       PRES   REMARKS
LAWRENCEVILLE  SUNNY     89  64  43 NW10      30.01F HX  90
$$

ABBREVIATIONS USED IN REMARKS
   TC - TEMPERATURE IN CELSIUS
  WCI - WIND CHILL INDEX
   HX - HEAT INDEX
  VSB - VISIBILITY
$$



USA.gov is the U.S. government's official web portal to all federal, state and local government web resources and services.